SCP
-0 -0 -0 -0 -0 -0 -0 -0 -0 -0 -0 -0 -0 -0 -0 -0 -0 -0 -0 -0 -0 -0 -0 -0 -0 -0 -0 -0 -0 -0 -0 -0 -0 -0 -0 -0 -0 -0 -0 -0 -0 0 -0
-0 -0 -0 -0 -0 -0 -0 -0 -0 -0 -0 -0 -0 -0 -0 -0 -0 -0 -0 -0 -0 -0 -0 -0 -0 -0 -0 -0 -0 -0 -0 -0 -0 -0 -0 -0 -0 -0 -0 -0 0 0 -0
-0 -0 -0 -0 -0 -0 -0 -0 -0 -0 -0 -0 -0 -0 -0 -0 -0 -0 -0 -0 -0 -0 -0 -0 -0 -0 -0 -0 -0 -0 -0 -0 -0 -0 -0 0 0 0 -0 -0 0 0 0
-0 -0 -0 -0 -0 -0 -0 -0 -0 -0 -0 -0 -0 -0 -0 -0 -0 -0 -0 -0 -0 -0 -0 -0 -0 -0 -0 -0 -0 -0 0 0 0 0 0 0 0 0 0 0 0 0 0
-0 -0 -0 -0 -0 -0 -0 -0 -0 -0 -0 -0 -0 -0 -0 -0 -0 -0 -0 -0 -0 0 0 0 0 0 0 0 0 0 0 0 0 0 0 0 0 0 0 0 0 0 0
-0 -0 -0 -0 -0 -0 -0 -0 -0 -0 -0 -0 -0 -0 -0 -0 0 0 0 0 0 0 0 0 0 0 0 0 0 0 0 0 0 0 0 0 0 0 0 0 0 0 0
0 0 0 -0 -0 -0 -0 -0 -0 -0 -0 -0 -0 -0 -0 0 0 0 0 0 0 0 0 0 0 0 0 0 0 0 0 0 0 0 0 0 0 0 0 0 0 0 0
0 0 0 0 0 0 -0 -0 -0 -0 -0 -0 -0 0 0 0 0 0 0 0 0 0 0 0 0 0 0 0 0 0 0 0 0 0 0 0 0 0 0 0 0 0 0
0 0 0 0 0 0 0 0 0 0 0 0 0 0 0 0 0 0 0 0 0 0 0 0 0 0 0 0 0 0 0 0 0 0 0 0 0 0 0 0 0 -0 0
0 0 0 0 0 0 0 0 0 0 0 0 0 0 0 0 0 0 0 0 0 0 0 0 0 0 0 0 0 0 0 0 0 0 0 0 0 0 0 0 0 0 0
0 0 0 0 0 0 0 0 0 0 0 0 0 0 0 0 0 0 0 0 0 0 0 0 0 0 0 0 0 0 0 0 0 0 0 0 0 0 0 0 0 0 -0
0 0 0 0 0 0 0 0 0 0 0 0 0 0 0 0 0 0 0 0 0 0 0 0 0 0 0 0 0 0 0 0 0 0 0 0 0 0 0 0 0 0 0
0 0 0 0 0 0 0 0 0 0 0 0 0 0 0 0 0 0 0 0 0 0 0 0 0 0 0 0 0 0 0 0 0 0 0 0 0 0 0 0 0 0 0
0 0 0 0 0 0 0 0 0 0 0 0 0 0 0 0 0 0 0 0 0 0 0 0 0 0 0 0 0 0 0 0 0 0 0 0 0 0 0 0 0 0 0
0 0 0 0 0 0 0 0 0 0 0 0 0 0 0 0 0 0 0 0 0 0 0 0 0 0 0 0 0 0 0 0 0 0 0 0 0 0 0 0 0 0 0
0 0 0 0 0 0 0 0 0 0 0 0 0 0 0 0 0 0 0 0 0 0 0 0 0 0 0 0 0 0 0 0 0 0 0 0 0 0 0 0 0 0 0
0 0 0 0 0 0 0 0 0 0 0 0 0 0 0 0 0 0 0 0 0 0 0 0 0 0 0 0 0 0 0 0 0 0 0 0 0 0 0 0 0 0 0
0 0 0 0 0 0 0 0 0 0 0 0 0 0 0 0 0 0 0 0 0 0 0 0 0 0 0 0 0 0 0 0 0 0 0 0 0 0 0 0 0 0 0
0 0 0 0 0 0 0 0 0 0 0 0 0 0 0 0 0 0 0 0 0 0 0 0 0 0 0 0 0 0 0 0 0 0 0 0 0 0 0 0 0 0 0
0 0 0 0 0 0 0 0 0 0 0 0 0 0 0 0 0 0 0 0 0 0 0 0 0 0 0 0 0 0 0 0 0 0 0 0 0 0 0 0 0 0 0
0 0 0 0 0 0 0 0 0 0 0 0 0 0 0 0 0 0 0 0 0 0 0 0 0 0 0 0 0 0 0 0 0 0 0 0 0 0 0 0 0 0 0
0 0 0 0 0 0 0 0 0 0 0 0 0 0 0 0 0 0 0 0 0 0 0 0 0 0 0 0 0 0 0 0 0 0 0 0 0 0 0 0 0 0 0
0 0 0 0 0 0 0 0 0 0 0 0 0 0 0 0 0 0 0 0 0 0 0 0 0 0 0 0 0 0 0 0 0 0 0 0 0 0 0 0 0 0 0
0 0 0 0 0 0 0 0 0 0 0 0 0 0 0 0 0 0 0 0 0 0 0 0 0 0 0 0 0 0 0 0 0 0 0 0 0 0 0 0 0 0 0
0 0 0 0 0 0 0 0 0 0 0 0 0 0 0 0 0 0 0 0 0 0 0 0 0 0 0 0 0 0 0 0 0 0 0 0 0 0 0 0 0 0 0
0 0 0 0 0 0 0 0 0 0 0 0 0 0 0 0 0 0 0 0 0 0 0 0 0 0 0 0 0 0 0 0 0 0 0 0 0 0 0 0 0 0 0
Wind_Speed_500mb
59 60 55 51 47 44 42 41 40 37 36 32 28 23 17 13 9 7 7 8 8 6 6 8 11 13 12 13 13 14 15 16 16 20 24 21 16 12 13 15 14 13 15
65 65 58 52 48 45 44 43 40 38 36 33 27 19 13 9 7 5 5 9 13 11 12 9 10 13 14 14 14 15 17 18 18 18 19 17 15 13 8 7 8 9 11
64 66 60 54 51 47 45 43 41 38 35 32 24 17 11 8 7 7 7 15 17 19 19 21 16 13 12 12 12 14 15 16 17 17 16 15 13 7 4 4 3 4 6
62 67 62 56 52 48 45 42 38 36 33 28 20 14 11 9 9 11 16 18 17 20 21 21 22 19 11 7 8 11 14 16 15 15 15 14 13 10 5 1 1 5 6
60 65 62 57 53 49 46 43 40 36 32 24 17 14 12 10 10 12 16 17 18 20 21 22 21 20 20 16 8 8 13 16 16 14 12 12 11 13 8 7 6 8 8
59 63 62 58 55 51 48 46 42 39 33 22 18 15 12 12 13 14 15 16 15 16 17 18 17 16 14 14 16 12 6 17 20 19 17 16 13 10 12 17 17 15 13
60 62 60 58 56 53 49 47 44 39 33 24 19 15 13 14 15 16 15 14 12 12 12 13 14 13 13 10 9 9 11 3 17 24 25 22 20 19 19 19 17 16 17
58 64 61 57 55 53 50 47 45 39 32 26 22 18 16 14 15 16 12 10 8 8 8 8 10 11 11 11 7 4 3 4 6 12 26 27 24 21 21 21 23 17 18
56 62 63 59 54 53 51 47 43 39 34 29 25 21 18 15 14 14 12 10 8 6 4 4 6 8 10 10 9 6 5 4 4 5 12 21 19 18 19 22 23 21 19
57 58 62 61 58 56 52 48 44 40 35 30 29 24 20 17 16 14 11 10 9 6 2 1 4 8 11 12 11 11 9 7 8 7 8 18 22 19 16 24 28 27 25
58 59 61 62 61 57 54 50 46 41 37 34 31 26 23 21 18 15 13 12 11 7 3 5 11 17 21 21 19 19 16 13 12 10 11 12 17 17 17 19 28 33 33
61 62 61 62 60 57 56 53 48 46 43 38 33 29 26 23 20 18 15 17 16 10 12 15 21 26 28 26 24 24 23 19 19 16 13 12 16 17 20 21 25 29 34
62 61 62 61 59 59 60 56 51 48 45 41 36 32 29 28 26 25 26 26 25 21 19 24 27 29 28 29 26 26 25 23 24 21 22 23 23 24 25 26 29 33 34
66 62 59 58 62 62 59 57 53 51 47 44 40 36 34 30 28 27 32 33 25 22 29 32 32 32 29 23 22 23 27 30 33 35 36 36 33 33 34 34 36 35 37
66 62 59 55 57 64 60 57 54 52 48 44 42 38 35 31 32 30 26 28 27 29 33 36 35 31 24 23 26 28 30 32 35 36 38 39 42 46 46 44 45 46 47
64 64 61 57 57 57 57 54 52 48 46 46 43 40 37 34 32 29 29 28 30 33 36 38 34 25 27 31 33 34 34 35 36 38 40 40 40 41 44 48 55 60 57
71 62 66 60 53 53 53 50 46 43 44 43 43 43 38 37 36 37 35 33 34 37 37 33 29 30 34 32 30 28 29 31 32 35 37 39 40 41 43 44 47 50 59
74 72 69 65 60 55 60 57 54 53 51 43 43 42 40 36 35 35 35 36 37 36 30 29 32 34 33 29 24 25 27 29 32 34 36 40 43 43 44 47 48 48 49
79 77 77 76 68 60 61 65 62 58 59 54 46 41 40 39 37 36 37 36 34 32 31 32 33 31 28 27 24 22 25 27 30 30 32 35 36 37 38 41 45 48 52
80 79 80 84 78 67 69 69 66 62 64 57 49 47 43 41 38 37 37 35 33 33 31 31 30 29 27 25 24 22 23 25 22 18 19 22 24 25 27 29 31 34 35
84 85 87 94 90 78 77 77 73 71 67 68 53 46 46 43 39 38 36 34 31 31 31 29 26 26 27 26 22 18 16 13 11 11 10 10 19 25 27 31 35 37 39
84 79 82 90 96 86 79 77 75 72 66 68 59 48 45 43 40 38 35 33 31 30 28 26 25 23 25 24 21 18 8 13 17 17 23 32 20 25 31 36 41 47 50
88 89 88 83 93 91 84 83 77 83 72 69 59 48 46 46 43 38 35 33 31 28 25 24 24 24 22 21 16 9 7 7 11 25 20 23 30 31 38 46 46 47 50
90 90 86 87 90 95 92 90 77 78 85 70 59 55 47 47 43 38 36 33 29 27 24 23 24 22 19 18 16 13 12 16 9 12 15 21 32 37 36 31 30 29 31
80 82 85 87 93 98 97 89 81 76 80 68 59 56 49 47 43 39 36 32 28 25 23 21 20 18 17 15 13 12 13 12 13 13 29 37 43 40 37 41 30 31 33
85 80 82 86 92 96 99 92 90 80 79 67 65 59 52 48 44 40 35 32 28 24 21 18 16 15 15 16 15 14 12 11 12 15 24 40 50 41 49 25 37 40 43
Wind_Direction_500mb
173 172 169 170 169 166 163 161 159 157 154 151 148 144 143 141 139 141 149 150 149 146 169 173 157 152 152 145 142 138 135 134 128 128 135 133 130 122 109 99 84 63 59
167 173 171 171 171 168 165 163 162 160 159 158 155 154 153 143 133 132 149 143 117 102 94 107 154 154 153 155 154 153 148 148 144 140 142 140 129 129 125 107 97 73 56
169 172 172 173 173 171 169 167 166 166 166 165 164 161 150 135 125 115 127 124 99 86 82 79 90 139 146 155 165 166 161 158 159 157 158 154 149 135 130 97 71 30 28
171 173 173 176 176 174 172 171 170 170 171 171 167 161 145 138 128 108 106 111 83 80 73 71 73 83 108 138 162 178 176 173 171 177 179 182 180 175 191 157 323 317 316
175 176 176 177 178 177 175 174 174 175 174 173 170 165 155 147 138 124 113 101 84 76 71 68 67 67 66 66 77 187 194 193 194 195 203 216 219 224 232 263 276 278 281
177 178 179 181 180 181 180 179 179 178 180 179 178 172 162 150 147 135 122 110 101 90 80 71 66 63 61 55 51 56 195 210 209 216 226 235 236 257 259 272 277 266 266
178 179 182 185 183 183 183 182 181 183 183 183 184 179 169 155 155 150 143 137 126 102 81 70 67 62 52 46 47 45 55 67 226 225 229 239 252 261 258 263 271 259 264
180 180 183 187 186 185 185 185 186 185 187 187 188 184 174 168 165 165 157 151 130 104 87 66 51 43 38 33 24 17 9 19 20 234 228 237 248 261 263 254 272 265 259
185 184 184 186 186 187 188 189 190 189 189 192 192 188 182 180 170 172 170 165 159 146 109 55 28 9 359 356 353 337 327 292 335 347 233 236 255 272 263 252 266 273 276
186 190 189 188 187 188 191 193 194 193 195 197 196 194 188 186 178 180 183 180 184 184 192 308 350 343 325 314 303 298 297 282 265 254 245 248 256 279 286 257 266 276 281
189 193 193 191 190 192 191 191 191 195 199 199 201 199 197 194 191 189 192 198 201 206 238 291 314 315 308 299 289 281 282 278 270 274 267 253 246 265 274 278 268 273 280
190 193 196 196 196 193 193 194 196 198 201 205 205 205 203 202 203 204 205 199 210 236 279 285 296 302 300 291 281 277 271 260 266 276 282 263 250 279 273 276 277 279 275
190 191 193 199 201 199 199 198 201 203 206 206 208 208 208 211 216 220 216 210 216 232 260 278 289 291 290 290 280 274 270 266 261 266 270 266 262 275 285 274 278 279 278
197 197 197 198 204 205 206 206 206 207 209 210 211 212 214 219 228 231 217 217 230 247 272 283 284 288 290 289 285 278 271 265 262 259 258 257 259 263 270 274 272 278 279
202 201 203 200 208 210 209 211 212 212 211 213 214 217 219 227 229 229 217 223 237 259 271 277 281 283 277 282 289 287 280 277 275 273 271 267 262 259 258 259 265 269 274
208 207 204 204 209 212 212 214 216 215 216 215 216 219 224 226 222 222 237 243 255 263 270 276 277 271 279 287 287 284 281 279 278 276 275 271 268 266 264 261 260 258 258
212 212 209 209 207 209 213 214 211 217 217 221 223 221 223 217 222 230 240 247 256 265 269 268 266 275 284 287 286 286 284 282 279 276 274 273 270 268 267 265 262 261 260
216 214 212 212 212 209 214 213 217 216 220 223 226 224 219 218 226 236 241 251 259 261 257 257 269 281 286 287 289 289 287 283 280 278 274 272 270 269 267 267 267 267 268
218 219 213 215 218 214 213 215 216 218 222 216 222 219 215 222 228 234 244 249 252 251 253 264 277 280 281 286 291 293 288 285 281 280 276 274 274 275 275 274 273 273 272
224 222 221 220 220 217 213 212 216 217 218 213 213 217 220 225 231 239 242 244 245 250 259 271 277 279 283 288 295 297 293 289 283 275 272 274 279 280 280 281 282 281 279
224 225 224 220 219 216 211 211 212 215 216 214 206 212 221 225 233 238 244 244 244 252 263 268 270 277 284 292 298 297 289 263 260 265 257 272 283 282 280 281 281 281 282
224 222 221 221 221 217 214 213 216 217 221 205 203 211 230 230 234 239 240 241 248 255 258 262 267 273 280 287 296 305 240 264 254 253 271 287 278 284 285 285 284 286 286
226 227 224 220 217 216 212 211 217 210 208 200 205 212 226 230 235 236 237 242 248 251 254 261 268 273 279 287 295 283 283 246 256 271 256 271 288 290 289 288 291 289 288
226 226 226 219 216 215 214 213 216 214 206 204 216 216 226 228 232 232 237 241 242 246 250 259 270 276 281 286 289 284 274 277 295 292 280 277 295 310 317 322 318 314 313
222 222 221 218 214 215 213 217 224 218 212 211 209 216 220 224 228 229 233 234 234 238 248 257 266 276 283 284 287 295 302 304 294 303 309 310 316 331 333 334 340 335 330
223 219 217 217 215 214 213 215 216 220 213 210 216 211 221 222 224 225 225 225 228 236 245 252 262 271 280 290 294 293 287 291 293 292 302 315 323 328 329 333 335 330 333
Wind_Speed_850mb
59 60 55 51 47 44 42 41 40 37 36 32 28 23 17 13 9 7 7 8 8 6 6 8 11 13 12 13 13 14 15 16 16 20 24 21 16 12 13 15 14 13 15
65 65 58 52 48 45 44 43 40 38 36 33 27 19 13 9 7 5 5 9 13 11 12 9 10 13 14 14 14 15 17 18 18 18 19 17 15 13 8 7 8 9 11
64 66 60 54 51 47 45 43 41 38 35 32 24 17 11 8 7 7 7 15 17 19 19 21 16 13 12 12 12 14 15 16 17 17 16 15 13 7 4 4 3 4 6
62 67 62 56 52 48 45 42 38 36 33 28 20 14 11 9 9 11 16 18 17 20 21 21 22 19 11 7 8 11 14 16 15 15 15 14 13 10 5 1 1 5 6
60 65 62 57 53 49 46 43 40 36 32 24 17 14 12 10 10 12 16 17 18 20 21 22 21 20 20 16 8 8 13 16 16 14 12 12 11 13 8 7 6 8 8
59 63 62 58 55 51 48 46 42 39 33 22 18 15 12 12 13 14 15 16 15 16 17 18 17 16 14 14 16 12 6 17 20 19 17 16 13 10 12 17 17 15 13
60 62 60 58 56 53 49 47 44 39 33 24 19 15 13 14 15 16 15 14 12 12 12 13 14 13 13 10 9 9 11 3 17 24 25 22 20 19 19 19 17 16 17
58 64 61 57 55 53 50 47 45 39 32 26 22 18 16 14 15 16 12 10 8 8 8 8 10 11 11 11 7 4 3 4 6 12 26 27 24 21 21 21 23 17 18
56 62 63 59 54 53 51 47 43 39 34 29 25 21 18 15 14 14 12 10 8 6 4 4 6 8 10 10 9 6 5 4 4 5 12 21 19 18 19 22 23 21 19
57 58 62 61 58 56 52 48 44 40 35 30 29 24 20 17 16 14 11 10 9 6 2 1 4 8 11 12 11 11 9 7 8 7 8 18 22 19 16 24 28 27 25
58 59 61 62 61 57 54 50 46 41 37 34 31 26 23 21 18 15 13 12 11 7 3 5 11 17 21 21 19 19 16 13 12 10 11 12 17 17 17 19 28 33 33
61 62 61 62 60 57 56 53 48 46 43 38 33 29 26 23 20 18 15 17 16 10 12 15 21 26 28 26 24 24 23 19 19 16 13 12 16 17 20 21 25 29 34
62 61 62 61 59 59 60 56 51 48 45 41 36 32 29 28 26 25 26 26 25 21 19 24 27 29 28 29 26 26 25 23 24 21 22 23 23 24 25 26 29 33 34
66 62 59 58 62 62 59 57 53 51 47 44 40 36 34 30 28 27 32 33 25 22 29 32 32 32 29 23 22 23 27 30 33 35 36 36 33 33 34 34 36 35 37
66 62 59 55 57 64 60 57 54 52 48 44 42 38 35 31 32 30 26 28 27 29 33 36 35 31 24 23 26 28 30 32 35 36 38 39 42 46 46 44 45 46 47
64 64 61 57 57 57 57 54 52 48 46 46 43 40 37 34 32 29 29 28 30 33 36 38 34 25 27 31 33 34 34 35 36 38 40 40 40 41 44 48 55 60 57
71 62 66 60 53 53 53 50 46 43 44 43 43 43 38 37 36 37 35 33 34 37 37 33 29 30 34 32 30 28 29 31 32 35 37 39 40 41 43 44 47 50 59
74 72 69 65 60 55 60 57 54 53 51 43 43 42 40 36 35 35 35 36 37 36 30 29 32 34 33 29 24 25 27 29 32 34 36 40 43 43 44 47 48 48 49
79 77 77 76 68 60 61 65 62 58 59 54 46 41 40 39 37 36 37 36 34 32 31 32 33 31 28 27 24 22 25 27 30 30 32 35 36 37 38 41 45 48 52
80 79 80 84 78 67 69 69 66 62 64 57 49 47 43 41 38 37 37 35 33 33 31 31 30 29 27 25 24 22 23 25 22 18 19 22 24 25 27 29 31 34 35
84 85 87 94 90 78 77 77 73 71 67 68 53 46 46 43 39 38 36 34 31 31 31 29 26 26 27 26 22 18 16 13 11 11 10 10 19 25 27 31 35 37 39
84 79 82 90 96 86 79 77 75 72 66 68 59 48 45 43 40 38 35 33 31 30 28 26 25 23 25 24 21 18 8 13 17 17 23 32 20 25 31 36 41 47 50
88 89 88 83 93 91 84 83 77 83 72 69 59 48 46 46 43 38 35 33 31 28 25 24 24 24 22 21 16 9 7 7 11 25 20 23 30 31 38 46 46 47 50
90 90 86 87 90 95 92 90 77 78 85 70 59 55 47 47 43 38 36 33 29 27 24 23 24 22 19 18 16 13 12 16 9 12 15 21 32 37 36 31 30 29 31
80 82 85 87 93 98 97 89 81 76 80 68 59 56 49 47 43 39 36 32 28 25 23 21 20 18 17 15 13 12 13 12 13 13 29 37 43 40 37 41 30 31 33
85 80 82 86 92 96 99 92 90 80 79 67 65 59 52 48 44 40 35 32 28 24 21 18 16 15 15 16 15 14 12 11 12 15 24 40 50 41 49 25 37 40 43
Wind_Direction_850mb
173 172 169 170 169 166 163 161 159 157 154 151 148 144 143 141 139 141 149 150 149 146 169 173 157 152 152 145 142 138 135 134 128 128 135 133 130 122 109 99 84 63 59
167 173 171 171 171 168 165 163 162 160 159 158 155 154 153 143 133 132 149 143 117 102 94 107 154 154 153 155 154 153 148 148 144 140 142 140 129 129 125 107 97 73 56
169 172 172 173 173 171 169 167 166 166 166 165 164 161 150 135 125 115 127 124 99 86 82 79 90 139 146 155 165 166 161 158 159 157 158 154 149 135 130 97 71 30 28
171 173 173 176 176 174 172 171 170 170 171 171 167 161 145 138 128 108 106 111 83 80 73 71 73 83 108 138 162 178 176 173 171 177 179 182 180 175 191 157 323 317 316
175 176 176 177 178 177 175 174 174 175 174 173 170 165 155 147 138 124 113 101 84 76 71 68 67 67 66 66 77 187 194 193 194 195 203 216 219 224 232 263 276 278 281
177 178 179 181 180 181 180 179 179 178 180 179 178 172 162 150 147 135 122 110 101 90 80 71 66 63 61 55 51 56 195 210 209 216 226 235 236 257 259 272 277 266 266
178 179 182 185 183 183 183 182 181 183 183 183 184 179 169 155 155 150 143 137 126 102 81 70 67 62 52 46 47 45 55 67 226 225 229 239 252 261 258 263 271 259 264
180 180 183 187 186 185 185 185 186 185 187 187 188 184 174 168 165 165 157 151 130 104 87 66 51 43 38 33 24 17 9 19 20 234 228 237 248 261 263 254 272 265 259
185 184 184 186 186 187 188 189 190 189 189 192 192 188 182 180 170 172 170 165 159 146 109 55 28 9 359 356 353 337 327 292 335 347 233 236 255 272 263 252 266 273 276
186 190 189 188 187 188 191 193 194 193 195 197 196 194 188 186 178 180 183 180 184 184 192 308 350 343 325 314 303 298 297 282 265 254 245 248 256 279 286 257 266 276 281
189 193 193 191 190 192 191 191 191 195 199 199 201 199 197 194 191 189 192 198 201 206 238 291 314 315 308 299 289 281 282 278 270 274 267 253 246 265 274 278 268 273 280
190 193 196 196 196 193 193 194 196 198 201 205 205 205 203 202 203 204 205 199 210 236 279 285 296 302 300 291 281 277 271 260 266 276 282 263 250 279 273 276 277 279 275
190 191 193 199 201 199 199 198 201 203 206 206 208 208 208 211 216 220 216 210 216 232 260 278 289 291 290 290 280 274 270 266 261 266 270 266 262 275 285 274 278 279 278
197 197 197 198 204 205 206 206 206 207 209 210 211 212 214 219 228 231 217 217 230 247 272 283 284 288 290 289 285 278 271 265 262 259 258 257 259 263 270 274 272 278 279
202 201 203 200 208 210 209 211 212 212 211 213 214 217 219 227 229 229 217 223 237 259 271 277 281 283 277 282 289 287 280 277 275 273 271 267 262 259 258 259 265 269 274
208 207 204 204 209 212 212 214 216 215 216 215 216 219 224 226 222 222 237 243 255 263 270 276 277 271 279 287 287 284 281 279 278 276 275 271 268 266 264 261 260 258 258
212 212 209 209 207 209 213 214 211 217 217 221 223 221 223 217 222 230 240 247 256 265 269 268 266 275 284 287 286 286 284 282 279 276 274 273 270 268 267 265 262 261 260
216 214 212 212 212 209 214 213 217 216 220 223 226 224 219 218 226 236 241 251 259 261 257 257 269 281 286 287 289 289 287 283 280 278 274 272 270 269 267 267 267 267 268
218 219 213 215 218 214 213 215 216 218 222 216 222 219 215 222 228 234 244 249 252 251 253 264 277 280 281 286 291 293 288 285 281 280 276 274 274 275 275 274 273 273 272
224 222 221 220 220 217 213 212 216 217 218 213 213 217 220 225 231 239 242 244 245 250 259 271 277 279 283 288 295 297 293 289 283 275 272 274 279 280 280 281 282 281 279
224 225 224 220 219 216 211 211 212 215 216 214 206 212 221 225 233 238 244 244 244 252 263 268 270 277 284 292 298 297 289 263 260 265 257 272 283 282 280 281 281 281 282
224 222 221 221 221 217 214 213 216 217 221 205 203 211 230 230 234 239 240 241 248 255 258 262 267 273 280 287 296 305 240 264 254 253 271 287 278 284 285 285 284 286 286
226 227 224 220 217 216 212 211 217 210 208 200 205 212 226 230 235 236 237 242 248 251 254 261 268 273 279 287 295 283 283 246 256 271 256 271 288 290 289 288 291 289 288
226 226 226 219 216 215 214 213 216 214 206 204 216 216 226 228 232 232 237 241 242 246 250 259 270 276 281 286 289 284 274 277 295 292 280 277 295 310 317 322 318 314 313
222 222 221 218 214 215 213 217 224 218 212 211 209 216 220 224 228 229 233 234 234 238 248 257 266 276 283 284 287 295 302 304 294 303 309 310 316 331 333 334 340 335 330
223 219 217 217 215 214 213 215 216 220 213 210 216 211 221 222 224 225 225 225 228 236 245 252 262 271 280 290 294 293 287 291 293 292 302 315 323 328 329 333 335 330 333